Alpena, MI

2:42 PM EST on February 26, 2017 (GMT -0500)
Alpena County Regional

Weather History for KAPN - May, 2014

Change the Weather History Date:

Saturday, May 10, 2014

  Actual Average Record
Temperature  
Mean Temperature 51 °F 51 °F  
Max Temperature 65 °F 63 °F 88 °F (1953)
Min Temperature 37 °F 39 °F 22 °F (1962)
Degree Days  
Heating Degree Days 14 15  
Month to date heating degree days 180 160  
Since 1 July heating degree days 8849 7719  
Cooling Degree Days 0 0  
Month to date cooling degree days 0 0  
Year to date cooling degree days 0 2  
Growing Degree Days 4 (Base 50)    
Moisture  
Dew Point 37 °F    
Average Humidity 56    
Maximum Humidity 86    
Minimum Humidity 26    
Precipitation  
Precipitation 0.00 in 0.08 in 1.27 in (2013)
Month to date precipitation 0.76 0.79  
Year to date precipitation 9.95 8.02  
Sea Level Pressure  
Sea Level Pressure 29.81 in    
Wind  
Wind Speed 10 mph (West)    
Max Wind Speed 22 mph    
Max Gust Speed 34 mph    
Visibility 10 miles    
Events      
T = Trace of Precipitation, MM = Missing Value Source: NWS Daily Summary

Daily Weather History Graph

Daily Weather History Graph

Search for Another Location

Airport or City:

Trip Planner

Search our weather history database for the weather conditions in past years. The results will help you decide how hot, cold, wet, or windy it might be!

Date:

Astronomy

May. 10, 2014 Rise Set
Actual Time 6:10 AM EDT 8:51 PM EDT
Civil Twilight 5:37 AM EDT 9:24 PM EDT
Nautical Twilight 4:55 AM EDT 10:07 PM EDT
Astronomical Twilight 4:06 AM EDT 10:56 PM EDT
Moon 4:34 PM EDT (5/10) 3:55 AM EDT (5/10)
Length of Visible Light 15h 47m
Length of Day
14h 40m
Waxing Gibbous, 82% of the Moon is Illuminated
May 10
Waxing Gibbous
May 14
Full
May 21
Last Quarter
May 28
New
Jun 5
First Quarter

Hourly Weather History & Observations

Time (EDT) Temp. Dew Point Humidity Pressure Visibility Wind Dir Wind Speed Gust Speed Precip Events Conditions
12:54 AM 57.9 °F 43.0 °F 58% 29.68 in 10.0 mi West 15.0 mph 25.3 mph N/A   Overcast
1:54 AM 57.0 °F 42.1 °F 57% 29.70 in 10.0 mi WSW 8.1 mph 24.2 mph N/A   Overcast
2:54 AM 55.9 °F 41.0 °F 57% 29.70 in 10.0 mi WSW 12.7 mph 21.9 mph N/A   Overcast
3:54 AM 55.0 °F 39.9 °F 57% 29.70 in 10.0 mi WSW 9.2 mph 19.6 mph N/A   Overcast
4:54 AM 54.0 °F 41.0 °F 62% 29.71 in 10.0 mi WSW 10.4 mph 21.9 mph N/A   Mostly Cloudy
5:54 AM 53.1 °F 39.9 °F 61% 29.72 in 10.0 mi West 13.8 mph 18.4 mph N/A   Overcast
6:54 AM 53.6 °F 37.4 °F 54% 29.74 in 10.0 mi West 11.5 mph 34.5 mph N/A   Overcast
7:54 AM 53.1 °F 37.0 °F 55% 29.76 in 10.0 mi West 15.0 mph 24.2 mph N/A   Mostly Cloudy
8:54 AM 53.1 °F 36.0 °F 52% 29.77 in 10.0 mi West 16.1 mph 31.1 mph N/A   Scattered Clouds
9:54 AM 54.0 °F 36.0 °F 51% 29.79 in 10.0 mi WNW 17.3 mph 27.6 mph N/A   Mostly Cloudy
10:54 AM 55.9 °F 37.0 °F 49% 29.80 in 10.0 mi West 15.0 mph 26.5 mph N/A   Mostly Cloudy
11:54 AM 59.0 °F 37.0 °F 44% 29.81 in 10.0 mi WNW 15.0 mph 24.2 mph N/A   Mostly Cloudy
12:54 PM 61.0 °F 37.0 °F 41% 29.81 in 10.0 mi West 12.7 mph 24.2 mph N/A   Scattered Clouds
1:54 PM 62.1 °F 37.0 °F 39% 29.82 in 10.0 mi WNW 16.1 mph 24.2 mph N/A   Overcast
2:54 PM 62.1 °F 37.9 °F 41% 29.84 in 10.0 mi West 13.8 mph 21.9 mph N/A   Overcast
3:54 PM 62.1 °F 37.9 °F 41% 29.85 in 10.0 mi West 11.5 mph 19.6 mph N/A   Overcast
4:54 PM 62.1 °F 37.0 °F 39% 29.85 in 10.0 mi West 13.8 mph 20.7 mph N/A   Overcast
5:54 PM 64.9 °F 36.0 °F 34% 29.86 in 10.0 mi West 8.1 mph 21.9 mph N/A   Clear
6:54 PM 64.0 °F 28.9 °F 27% 29.87 in 10.0 mi NW 13.8 mph 19.6 mph N/A   Clear
7:54 PM 63.0 °F 28.0 °F 27% 29.89 in 10.0 mi West 9.2 mph 17.3 mph N/A   Clear
8:54 PM 59.0 °F 28.9 °F 32% 29.91 in 10.0 mi NW 4.6 mph - N/A   Clear
9:54 PM 45.0 °F 39.0 °F 80% 29.94 in 10.0 mi Calm Calm - N/A   Clear
10:54 PM 43.0 °F 37.9 °F 82% 29.95 in 10.0 mi Calm Calm - N/A   Clear
11:54 PM 41.0 °F 37.9 °F 89% 29.95 in 10.0 mi Calm Calm - N/A   Clear